This is the latest recevied weather packets stored in our database for station/object KQ4WWD. If no packets are shown the sender has not sent any weather packets the latest 10 day(s).
| Time | Temp. | Humidity | Pressure | Rain* | Wind** | Luminosity | Snow |
|---|---|---|---|---|---|---|---|
| 1777465298 | 20° C | 93% | 1017.8 hPa | 0 mm | - | 57 W/m² | - |
| 1777464993 | 20° C | 93% | 1017.7 hPa | 0 mm | - | 50 W/m² | - |
| 1777464688 | 20° C | 93% | 1017.5 hPa | 0 mm | - | 49 W/m² | - |
| 1777464384 | 20° C | 94% | 1017.4 hPa | 0 mm | - | 40 W/m² | - |
| 1777464075 | 19.44° C | 94% | 1017 hPa | 0 mm | - | 35 W/m² | - |
| 1777463774 | 19.44° C | 94% | 1017.2 hPa | 0 mm | - | 44 W/m² | - |
| 1777463470 | 19.44° C | 94% | 1016.7 hPa | 0 mm | - | 52 W/m² | - |
| 1777463165 | 19.44° C | 94% | 1016.7 hPa | 0 mm | - | 50 W/m² | - |
| 1777462862 | 18.89° C | 94% | 1016.4 hPa | 0 mm | - | 42 W/m² | - |
| 1777462557 | 18.89° C | 94% | 1016.5 hPa | 0 mm | - | 32 W/m² | - |
| 1777462254 | 18.89° C | 94% | 1016.6 hPa | 0 mm | - | 24 W/m² | - |
| 1777461950 | 18.89° C | 94% | 1016.6 hPa | 0 mm | - | 20 W/m² | - |
| 1777461647 | 18.89° C | 95% | 1016.7 hPa | 0 mm | - | 16 W/m² | - |
| 1777461342 | 18.89° C | 95% | 1016.5 hPa | 0 mm | - | 12 W/m² | - |
| 1777461038 | 18.33° C | 95% | 1016.4 hPa | 0 mm | - | 12 W/m² | - |
| 1777460733 | 18.33° C | 95% | 1016.5 hPa | 0 mm | - | 9 W/m² | - |
| 1777460430 | 18.33° C | 95% | 1016.4 hPa | 0 mm | - | 5 W/m² | - |
| 1777460126 | 18.33° C | 95% | 1016.4 hPa | 0 mm | - | 3 W/m² | - |
| 1777459823 | 18.33° C | 95% | 1016.1 hPa | 0 mm | - | 1 W/m² | - |
| 1777459520 | 18.33° C | 95% | 1016.1 hPa | 0 mm | - | 0 W/m² | - |
| 1777459218 | 18.33° C | 95% | 1016.1 hPa | 0 mm | - | 0 W/m² | - |
| 1777458915 | 18.33° C | 95% | 1016.1 hPa | 0 mm | - | 0 W/m² | - |
| 1777458611 | 18.33° C | 95% | 1016.1 hPa | 0 mm | - | 0 W/m² | - |
| 1777458308 | 18.33° C | 95% | 1016 hPa | 0 mm | - | 0 W/m² | - |
| 1777458003 | 18.33° C | 95% | 1016 hPa | 0 mm | - | 0 W/m² | - |
* Rain latest hour (hover to see other rain measurements)
** Current wind speed in m/s (hover to see current wind gust speed)